Tracking 29747 objects as of 10-Oct-2024
HD Live streaming from Space Station
objects crossing your sky now

DELTA 1 DEB

Track DELTA 1 DEB now!
10-day predictions


NORAD ID: 21289
Int'l Code: 1975-052AA
Perigee: 1,082.0 km
Apogee: 1,457.9 km
Inclination: 99.9 °
Period: 110.8 minutes
Semi major axis: 7640 km
RCS: 0.0171 m2 (small)
Launch date: June 12, 1975
Source: United States (US)
Launch site: AIR FORCE WESTERN TEST RANGE (AFWTR)

Note: This is SATELLITE DEBRIS
Your satellite tracking list
Your tracking list is empty




NASA's NSSDC Master Catalog

Two Line Element Set (TLE):
1 21289U 75052AA  24283.60547383 -.00000321  00000-0 -81110-3 0  9998
2 21289  99.9037 314.5795 0245970 321.1168 161.4260 12.99822110584567
Source of the keplerian elements: AFSPC